Location: Bergnershof
(48.9468°N, 10.9431°E)
Time: 02:52:30
(UTC+00:00)

SJ 16-02 - Visible Passes

Search period start: 23 June 2021 00:00
Search period end: 03 July 2021 00:00
Orbit: 606 x 616 km, 75.0° (Epoch: 21 June)

Date Brightness Start Highest point End Pass type
(mag) Time Alt. Az. Time Alt. Az. Time Alt. Az.
23 Jun 3.7 20:40:29 10° NNE 20:42:27 13° NE 20:44:25 10° ENE visible
23 Jun 1.3 22:17:24 10° NNW 22:21:49 79° ENE 22:23:51 31° SSE visible
23 Jun 3.5 23:57:56 10° WNW 23:59:43 12° W 00:00:49 11° WSW visible
24 Jun 3.3 20:54:26 10° N 20:57:39 19° NE 21:00:51 10° E visible
24 Jun 1.6 22:32:17 10° NNW 22:36:37 58° WSW 22:38:21 33° S visible
25 Jun 2.6 21:08:49 10° N 21:12:43 31° ENE 21:15:55 14° ESE visible
25 Jun 2.4 22:47:23 10° NW 22:51:18 32° WSW 22:52:53 25° SW visible
26 Jun 1.8 21:23:24 10° NNW 21:27:42 51° ENE 21:30:28 20° SE visible
26 Jun 3.2 23:02:48 10° NW 23:05:53 19° W 23:07:26 16° WSW visible
27 Jun 1.3 21:38:10 10° NNW 21:42:34 90° NE 21:45:03 25° SSE visible
27 Jun 3.8 23:19:26 10° W 23:20:23 11° W 23:21:20 10° WSW visible
28 Jun 3.1 20:15:03 10° N 20:18:28 22° NE 20:21:51 10° ESE visible
28 Jun 1.8 21:53:05 10° NNW 21:57:20 50° WSW 21:59:39 24° S visible
29 Jun 2.4 20:29:29 10° N 20:33:31 34° ENE 20:37:19 11° SE visible
29 Jun 2.7 22:08:14 10° NW 22:12:00 29° W 22:14:17 18° SSW visible
30 Jun 1.6 20:44:08 10° NNW 20:48:29 58° ENE 20:51:59 15° SE visible
30 Jun 3.5 22:23:47 10° WNW 22:26:35 17° W 22:28:57 11° SW visible
01 Jul 1.4 20:58:55 10° NNW 21:03:19 80° WSW 21:06:40 17° SSE visible
02 Jul 2.1 21:13:53 10° NNW 21:18:04 44° WSW 21:21:23 15° S visible
